Weather History for KPBF - July, 2014

Change the Weather History Date:

Tuesday, July 15, 2014

  Actual Average Record
Temperature  
Mean Temperature 73 °F 82 °F  
Max Temperature 82 °F 92 °F 107 °F (1980)
Min Temperature 63 °F 72 °F 56 °F (1967)
Degree Days  
Heating Degree Days 0 0  
Month to date heating degree days 0 0  
Since 1 June heating degree days 0 0  
Since 1 July heating degree days 0 0  
Cooling Degree Days 8 17  
Month to date cooling degree days 207 254  
Year to date cooling degree days 888 983  
Since 1 June cooling degree days 625 676  
Growing Degree Days 26 (Base 50)    
Moisture  
Dew Point 65 °F    
Average Humidity 70    
Maximum Humidity 93    
Minimum Humidity 47    
Precipitation  
Precipitation T in 0.13 in 2.82 in (1989)
Month to date precipitation 0.53 1.89  
Year to date precipitation 26.15 28.67  
Snow  
Snow 0.00 in 0.00 in - ()
Month to date snowfall 0.0 0.0  
Since 1 June snowfall 0.0 0.0  
Since 1 July snowfall 0.0 0.0  
Snow Depth 0.00 in    
Sea Level Pressure  
Sea Level Pressure 29.98 in    
Wind  
Wind Speed 7 mph (North)    
Max Wind Speed 15 mph    
Max Gust Speed 20 mph    
Visibility 10 miles    
Events Rain    
T = Trace of Precipitation, MM = Missing Value Source: NWS Daily Summary

Daily Weather History Graph

Daily Weather History Graph

Search for Another Location

Airport or City:

Trip Planner

Search our weather history database for the weather conditions in past years. The results will help you decide how hot, cold, wet, or windy it might be!

Date:

Astronomy

Jul. 15, 2014 Rise Set
Actual Time 6:07 AM CDT 8:19 PM CDT
Civil Twilight 5:38 AM CDT 8:48 PM CDT
Nautical Twilight 5:03 AM CDT 9:23 PM CDT
Astronomical Twilight 4:25 AM CDT 10:01 PM CDT
Moon 10:41 PM CDT (7/15) 9:49 AM CDT (7/15)
Length of Visible Light 15h 09m
Length of Day
14h 12m
Waning Gibbous, 85% of the Moon is Illuminated
Jul 15
Waning Gibbous
Jul 18
Last Quarter
Jul 26
New
Aug 3
First Quarter
Aug 10
Full

Hourly Weather History & Observations

Time (CDT) Temp. Heat Index Dew Point Humidity Pressure Visibility Wind Dir Wind Speed Gust Speed Precip Events Conditions
12:53 AM 73.9 °F - 72.0 °F 93% 29.95 in 10.0 mi Calm Calm - N/A   Clear
1:11 AM 73.4 °F - 71.6 °F 94% 29.95 in 10.0 mi Calm Calm - N/A   Mostly Cloudy
1:38 AM 73.4 °F - 71.6 °F 94% 29.95 in 10.0 mi NW 3.5 mph - 0.00 in Rain Light Rain
1:53 AM 73.9 °F - 72.0 °F 93% 29.94 in 10.0 mi Calm Calm - 0.00 in   Overcast
2:25 AM 73.4 °F - 71.6 °F 94% 29.96 in 10.0 mi NW 3.5 mph - N/A   Overcast
2:53 AM 73.9 °F - 72.0 °F 93% 29.95 in 10.0 mi Calm Calm - N/A   Overcast
3:53 AM 75.0 °F - 72.0 °F 90% 29.95 in 10.0 mi Calm Calm - N/A   Overcast
4:45 AM 73.4 °F - 71.6 °F 94% 29.96 in 10.0 mi Calm Calm - N/A   Overcast
4:53 AM 73.9 °F - 72.0 °F 93% 29.96 in 10.0 mi Calm Calm - N/A   Overcast
5:00 AM 73.4 °F - 71.6 °F 94% 29.96 in 10.0 mi Calm Calm - N/A   Overcast
5:53 AM 72.0 °F - 66.9 °F 84% 29.99 in 10.0 mi North 8.1 mph - N/A   Mostly Cloudy
6:53 AM 71.1 °F - 63.0 °F 75% 30.00 in 10.0 mi North 9.2 mph - N/A   Overcast
7:53 AM 72.0 °F - 63.0 °F 73% 30.01 in 10.0 mi North 13.8 mph 18.4 mph N/A   Overcast
8:53 AM 73.9 °F - 62.1 °F 66% 30.03 in 10.0 mi North 11.5 mph - N/A   Overcast
9:53 AM 75.0 °F - 62.1 °F 64% 30.02 in 10.0 mi NNE 10.4 mph - N/A   Overcast
10:53 AM 78.1 °F - 61.0 °F 56% 30.02 in 10.0 mi North 15.0 mph - N/A   Clear
12:53 PM - - - N/A% - - North - - N/A   Unknown
1:53 PM 81.0 °F 81.7 °F 61.0 °F 50% 30.02 in 10.0 mi North 13.8 mph 19.6 mph N/A   Partly Cloudy
2:53 PM 82.0 °F 83.1 °F 63.0 °F 52% 30.00 in 10.0 mi NNE 12.7 mph - N/A   Partly Cloudy
3:53 PM 81.0 °F 81.9 °F 62.1 °F 52% 29.99 in 10.0 mi NNW 8.1 mph - N/A   Scattered Clouds
4:53 PM 82.0 °F 82.7 °F 61.0 °F 49% 29.98 in 10.0 mi North 12.7 mph - N/A   Partly Cloudy
5:53 PM 81.0 °F 81.3 °F 59.0 °F 47% 29.97 in 10.0 mi NNW 11.5 mph - N/A   Partly Cloudy
6:53 PM 79.0 °F - 57.0 °F 47% 29.97 in 10.0 mi North 9.2 mph - N/A   Clear
7:53 PM 75.0 °F - 55.0 °F 50% 29.98 in 10.0 mi NNE 8.1 mph - N/A   Clear
8:53 PM 71.1 °F - 55.0 °F 57% 29.99 in 10.0 mi NNE 5.8 mph - N/A   Clear
9:53 PM 70.0 °F - 57.9 °F 65% 30.00 in 10.0 mi NE 4.6 mph - N/A   Clear
10:53 PM 69.1 °F - 59.0 °F 70% 30.02 in 10.0 mi North 3.5 mph - N/A   Clear
11:53 PM 66.0 °F - 59.0 °F 78% 30.02 in 10.0 mi Calm Calm - N/A   Clear